INTELSAT 10-02

Last updated on Aug. 22, 2019, 3:58 a.m. UTC

1 28358U 04022A   19233.05836390 -.00000014  00000-0  00000+0 0  9991
2 28358   0.0091 146.5521 0003260  22.5576 180.0046  1.00273368 55638
UTC
Height (km)
Latitude
Longitude
Inclination
Orbital Period
UTC large
Height (km)
Speed (km/s)
/
Latitude / Longitude
Inclination (degrees)
Orbital Period (minutes)
Azimuth
Elevation
Range (km)
Doppler Factor
iOS Compass Heading
iOS Angle

Next 30 passes for location: Hong Kong

Rise time Rise Azimuth (degrees) Set time Set Azimuth (degrees) Duration Max altitude (degrees)

No matching passes for this satellites